This is the latest recevied weather packets stored in our database for station/object N7IGG. If no packets are shown the sender has not sent any weather packets the latest 10 day(s).
| Time | Temp. | Humidity | Pressure | Rain* | Wind** | Luminosity | Snow |
|---|---|---|---|---|---|---|---|
| 1778001868 | 12.78° C | 88% | 1016.7 hPa | 0 mm | - | 83 W/m² | - |
| 1778001566 | 12.78° C | 88% | 1016.5 hPa | 0 mm | - | 87 W/m² | - |
| 1778001264 | 12.78° C | 88% | 1016.5 hPa | 0 mm | - | 76 W/m² | - |
| 1778000960 | 12.78° C | 88% | 1016.6 hPa | 0 mm | - | 67 W/m² | - |
| 1778000657 | 12.78° C | 88% | 1016.4 hPa | 0 mm | - | 64 W/m² | - |
| 1778000352 | 13.33° C | 88% | 1016.5 hPa | 0 mm | - | 60 W/m² | - |
| 1778000048 | 12.78° C | 88% | 1016.2 hPa | 0 mm | - | 56 W/m² | - |
| 1777999744 | 12.78° C | 88% | 1016.3 hPa | 0 mm | - | 50 W/m² | - |
| 1777999441 | 13.33° C | 88% | 1016.4 hPa | 0 mm | - | 50 W/m² | - |
| 1777999139 | 12.78° C | 88% | 1016.4 hPa | 0 mm | - | 50 W/m² | - |
| 1777998838 | 13.33° C | 88% | 1016.3 hPa | 0 mm | - | 46 W/m² | - |
| 1777998536 | 13.33° C | 88% | 1016.5 hPa | 0 mm | - | 44 W/m² | - |
| 1777998232 | 12.78° C | 88% | 1016.5 hPa | 0 mm | - | 39 W/m² | - |
| 1777997929 | 12.78° C | 88% | 1016.4 hPa | 0 mm | - | 39 W/m² | - |
| 1777997625 | 12.78° C | 88% | 1016.2 hPa | 0 mm | - | 38 W/m² | - |
| 1777997323 | 13.33° C | 88% | 1016.3 hPa | 0 mm | - | 39 W/m² | - |
| 1777997021 | 12.78° C | 88% | 1016.3 hPa | 0 mm | - | 39 W/m² | - |
| 1777996717 | 12.78° C | 88% | 1016 hPa | 0 mm | - | 40 W/m² | - |
| 1777996413 | 12.78° C | 88% | 1016.3 hPa | 0 mm | - | 39 W/m² | - |
| 1777996110 | 12.78° C | 88% | 1016.2 hPa | 0 mm | - | 34 W/m² | - |
| 1777995806 | 12.78° C | 88% | 1016.2 hPa | 0 mm | - | 35 W/m² | - |
| 1777995502 | 12.78° C | 88% | 1016.1 hPa | 0 mm | - | 32 W/m² | - |
| 1777995199 | 12.78° C | 88% | 1016.1 hPa | 0 mm | - | 31 W/m² | - |
| 1777994897 | 12.78° C | 89% | 1016.1 hPa | 0 mm | - | 35 W/m² | - |
| 1777994594 | 12.78° C | 89% | 1016.1 hPa | 0 mm | - | 31 W/m² | - |
* Rain latest hour (hover to see other rain measurements)
** Current wind speed in m/s (hover to see current wind gust speed)